Location: Maccacari
(45.1333°N, 11.1333°E)
Time: 19:02:34
(UTC+00:00)

USA 234 - Pass Details

Date: 19 January 2021
Orbit: 1100 x 1107 km, 123.0° (Epoch: 01 March)

Event Time Altitude Azimuth Distance (km) Brightness Sun altitude
Exits shadow 17:37:26 22° 63° (ENE) 2,213 4.3 -16.0°
Maximum altitude 17:40:52 36° 14° (NNE) 1,679 4.0 -16.6°
Drops below altitude 10° 17:46:41 10° 311° (NW) 2,968 6.0 -17.6°
Sets 17:49:22 0° 303° (WNW) 3,928 6.9 -18.1°
